Year,Month,Day,Hour,Minute,Value (Times are PST for temperature in C)
2018,12,08,00,00,4.40
2018,12,08,00,01,4.40
2018,12,08,00,02,4.40
2018,12,08,00,03,4.40
2018,12,08,00,04,4.40
2018,12,08,00,05,4.30
2018,12,08,00,06,4.30
2018,12,08,00,07,4.30
2018,12,08,00,08,4.30
2018,12,08,00,09,4.30
2018,12,08,00,10,4.30
2018,12,08,00,11,4.30
2018,12,08,00,12,4.30
2018,12,08,00,13,4.30
2018,12,08,00,14,4.30
2018,12,08,00,15,4.30
2018,12,08,00,16,4.30
2018,12,08,00,17,4.30
2018,12,08,00,18,4.30
2018,12,08,00,19,4.30
2018,12,08,00,20,4.30
2018,12,08,00,21,4.30
2018,12,08,00,22,4.30
2018,12,08,00,23,4.30
2018,12,08,00,24,4.30
2018,12,08,00,25,4.30
2018,12,08,00,26,4.30
2018,12,08,00,27,4.30
2018,12,08,00,28,4.30
2018,12,08,00,29,4.30
2018,12,08,00,30,4.30
2018,12,08,00,31,4.30
2018,12,08,00,32,4.40
2018,12,08,00,33,4.40
2018,12,08,00,34,4.40
2018,12,08,00,35,4.40
2018,12,08,00,36,4.40
2018,12,08,00,37,4.50
2018,12,08,00,38,4.50
2018,12,08,00,39,4.50
2018,12,08,00,40,4.60
2018,12,08,00,41,4.60
2018,12,08,00,42,4.60
2018,12,08,00,43,4.60
2018,12,08,00,44,4.60
2018,12,08,00,45,4.60
2018,12,08,00,46,4.70
2018,12,08,00,47,4.70
2018,12,08,00,48,4.70
2018,12,08,00,49,4.70
2018,12,08,00,50,4.70
2018,12,08,00,51,4.70
2018,12,08,00,52,4.70
2018,12,08,00,53,4.70
2018,12,08,00,54,4.70
2018,12,08,00,55,4.70
2018,12,08,00,56,4.70
2018,12,08,00,57,4.80
2018,12,08,00,58,4.80
2018,12,08,00,59,4.80
2018,12,08,01,00,4.80
2018,12,08,01,01,4.80
2018,12,08,01,02,4.80
2018,12,08,01,03,4.80
2018,12,08,01,04,4.80
2018,12,08,01,05,4.80
2018,12,08,01,06,4.80
2018,12,08,01,07,4.90
2018,12,08,01,08,4.90
2018,12,08,01,09,4.90
2018,12,08,01,10,4.90
2018,12,08,01,11,4.90
2018,12,08,01,12,4.90
2018,12,08,01,13,4.90
2018,12,08,01,14,4.90
2018,12,08,01,15,4.90
2018,12,08,01,16,4.90
2018,12,08,01,17,4.90
2018,12,08,01,18,4.90
2018,12,08,01,19,5.00
2018,12,08,01,20,5.00
2018,12,08,01,21,5.00
2018,12,08,01,22,5.00
2018,12,08,01,23,5.00
2018,12,08,01,24,5.00
2018,12,08,01,25,5.10
2018,12,08,01,26,5.10
2018,12,08,01,27,5.10
2018,12,08,01,28,5.10
2018,12,08,01,29,5.10
2018,12,08,01,30,5.10
2018,12,08,01,31,5.10
2018,12,08,01,32,5.00
2018,12,08,01,33,5.00
2018,12,08,01,34,5.00
2018,12,08,01,35,5.00
2018,12,08,01,36,5.00
2018,12,08,01,37,5.00
2018,12,08,01,38,4.90
2018,12,08,01,39,4.90
2018,12,08,01,40,4.90
2018,12,08,01,41,4.90
2018,12,08,01,42,4.90
2018,12,08,01,43,4.90
2018,12,08,01,44,4.90
2018,12,08,01,45,4.90
2018,12,08,01,46,4.90
2018,12,08,01,47,5.00
2018,12,08,01,48,4.90
2018,12,08,01,49,4.90
2018,12,08,01,50,4.90
2018,12,08,01,51,4.90
2018,12,08,01,52,4.90
2018,12,08,01,53,4.90
2018,12,08,01,54,4.90
2018,12,08,01,55,4.90
2018,12,08,01,56,4.90
2018,12,08,01,57,4.90
2018,12,08,01,58,4.90
2018,12,08,01,59,4.90
2018,12,08,02,00,4.80
2018,12,08,02,01,4.80
2018,12,08,02,02,4.80
2018,12,08,02,03,4.80
2018,12,08,02,04,4.80
2018,12,08,02,05,4.80
2018,12,08,02,06,4.80
2018,12,08,02,07,4.80
2018,12,08,02,08,4.80
2018,12,08,02,09,4.80
2018,12,08,02,10,4.80
2018,12,08,02,11,4.80
2018,12,08,02,12,4.80
2018,12,08,02,13,4.80
2018,12,08,02,14,4.80
2018,12,08,02,15,4.80
2018,12,08,02,16,4.80
2018,12,08,02,17,4.80
2018,12,08,08,48,7.00
2018,12,08,08,49,7.00
2018,12,08,08,50,7.00
2018,12,08,08,51,7.00
2018,12,08,08,52,7.00
2018,12,08,08,53,7.10
2018,12,08,08,54,7.10
2018,12,08,08,55,7.10
2018,12,08,08,56,7.10
2018,12,08,08,57,7.10
2018,12,08,08,58,7.10
2018,12,08,08,59,7.10
2018,12,08,09,00,7.10
2018,12,08,09,01,7.10
2018,12,08,09,02,7.10
2018,12,08,09,03,7.10
2018,12,08,09,04,7.20
2018,12,08,09,05,7.20
2018,12,08,09,06,7.20
2018,12,08,09,07,7.20
2018,12,08,09,08,7.20
2018,12,08,09,09,7.20
2018,12,08,09,10,7.20
2018,12,08,09,11,7.20
2018,12,08,09,12,7.20
2018,12,08,09,13,7.20
2018,12,08,09,14,7.20
2018,12,08,09,15,7.30
2018,12,08,09,16,7.20
2018,12,08,09,17,7.20
2018,12,08,09,18,7.10
2018,12,08,09,19,7.00
2018,12,08,09,20,6.90
2018,12,08,09,21,6.90
2018,12,08,09,22,6.80
2018,12,08,09,23,6.80
2018,12,08,09,24,6.80
2018,12,08,09,25,6.70
2018,12,08,09,26,6.70
2018,12,08,09,27,6.70
2018,12,08,09,28,6.60
2018,12,08,09,29,6.60
2018,12,08,09,30,6.50
2018,12,08,09,31,6.50
2018,12,08,09,32,6.50
2018,12,08,09,33,6.40
2018,12,08,09,34,6.40
2018,12,08,09,35,6.40
2018,12,08,09,36,6.40
2018,12,08,09,37,6.40
2018,12,08,09,38,6.40
2018,12,08,09,39,6.40
2018,12,08,09,40,6.40
2018,12,08,09,41,6.40
2018,12,08,09,42,6.40
2018,12,08,09,43,6.40
2018,12,08,09,44,6.40
2018,12,08,09,45,6.40
2018,12,08,09,46,6.40
2018,12,08,09,47,6.40
2018,12,08,09,48,6.40
2018,12,08,09,49,6.40
2018,12,08,09,50,6.50
2018,12,08,09,51,6.50
2018,12,08,09,52,6.50
2018,12,08,09,53,6.60
2018,12,08,09,54,6.60
2018,12,08,09,55,6.60
2018,12,08,09,56,6.70
2018,12,08,09,57,6.70
2018,12,08,09,58,6.70
2018,12,08,09,59,6.80
2018,12,08,10,00,6.80
2018,12,08,10,01,6.80
2018,12,08,10,02,6.80
2018,12,08,10,03,6.90
2018,12,08,10,04,6.90
2018,12,08,10,05,6.90
2018,12,08,10,06,6.90
2018,12,08,10,07,6.90
2018,12,08,10,08,6.90
2018,12,08,10,09,6.90
2018,12,08,10,10,6.90
2018,12,08,10,11,6.90
2018,12,08,10,12,6.90
2018,12,08,10,13,6.90
2018,12,08,10,14,7.00
2018,12,08,10,15,7.00
2018,12,08,10,16,7.00
2018,12,08,10,17,7.00
2018,12,08,10,18,7.10
2018,12,08,10,19,7.10
2018,12,08,10,20,7.10
2018,12,08,10,21,7.10
2018,12,08,10,22,7.10
2018,12,08,10,23,7.10
2018,12,08,10,24,7.20
2018,12,08,10,25,7.20
2018,12,08,10,26,7.20
2018,12,08,10,27,7.30
2018,12,08,10,28,7.40
2018,12,08,10,29,7.40
2018,12,08,10,30,7.50
2018,12,08,10,31,7.50
2018,12,08,10,32,7.60
2018,12,08,10,33,7.60
2018,12,08,10,34,7.60
2018,12,08,10,35,7.60
2018,12,08,10,36,7.60
2018,12,08,10,37,7.60
2018,12,08,10,38,7.70
2018,12,08,10,39,7.70
2018,12,08,10,40,7.70
2018,12,08,10,41,7.70
2018,12,08,10,42,7.70
2018,12,08,10,43,7.70
2018,12,08,10,44,7.70
2018,12,08,10,45,7.70
2018,12,08,10,46,7.70
2018,12,08,10,47,7.70
2018,12,08,10,48,7.70
2018,12,08,10,49,7.70
2018,12,08,10,50,7.70
2018,12,08,10,51,7.60
2018,12,08,10,52,7.60
2018,12,08,10,53,7.60
2018,12,08,10,54,7.60
2018,12,08,10,55,7.60
2018,12,08,10,56,7.60
2018,12,08,10,57,7.60
2018,12,08,10,58,7.60
2018,12,08,10,59,7.60
2018,12,08,11,00,7.50
2018,12,08,11,01,7.60
2018,12,08,11,02,7.60
2018,12,08,11,03,7.60
2018,12,08,11,04,7.60
2018,12,08,11,05,7.60
2018,12,08,11,06,7.60
2018,12,08,11,07,7.70
2018,12,08,11,08,7.70
2018,12,08,11,09,7.70
2018,12,08,11,10,7.70
2018,12,08,11,11,7.80
2018,12,08,11,12,7.80
2018,12,08,11,13,7.80
2018,12,08,11,14,7.80
2018,12,08,11,15,7.90
2018,12,08,11,16,7.90
2018,12,08,11,17,7.90
2018,12,08,11,18,7.90
2018,12,08,11,19,7.90
2018,12,08,11,20,7.90
2018,12,08,11,21,7.90
2018,12,08,11,22,7.90
2018,12,08,11,23,7.90
2018,12,08,11,24,8.00
2018,12,08,11,25,8.00
2018,12,08,11,26,8.00
2018,12,08,11,27,8.10
2018,12,08,11,28,8.10
2018,12,08,11,29,8.20
2018,12,08,11,30,8.20
2018,12,08,11,31,8.20
2018,12,08,11,32,8.20
2018,12,08,11,33,8.20
2018,12,08,11,34,8.20
2018,12,08,11,35,8.20
2018,12,08,11,36,8.10
2018,12,08,11,37,8.10
2018,12,08,11,38,8.10
2018,12,08,11,39,8.10
2018,12,08,11,40,8.10
2018,12,08,11,41,8.10
2018,12,08,11,42,8.10
2018,12,08,11,43,8.10
2018,12,08,11,44,8.10
2018,12,08,11,45,8.00
2018,12,08,11,46,8.00
2018,12,08,11,47,8.00
2018,12,08,11,48,7.90
2018,12,08,11,49,7.90
2018,12,08,11,50,7.90
2018,12,08,11,51,7.90
2018,12,08,11,52,7.90
2018,12,08,11,53,7.90
2018,12,08,11,54,7.90
2018,12,08,11,55,7.90
2018,12,08,11,56,7.90
2018,12,08,11,57,7.90
2018,12,08,11,58,7.90
2018,12,08,11,59,7.90
2018,12,08,12,00,7.90
2018,12,08,12,01,7.80
2018,12,08,12,02,7.80
2018,12,08,12,03,7.80
2018,12,08,12,04,7.80
2018,12,08,12,05,7.80
2018,12,08,12,06,7.80
2018,12,08,12,07,7.80
2018,12,08,12,08,7.80
2018,12,08,12,09,7.80
2018,12,08,12,10,7.80
2018,12,08,12,11,7.80
2018,12,08,12,12,7.80
2018,12,08,12,13,7.80
2018,12,08,12,14,7.80
2018,12,08,12,15,7.80
2018,12,08,12,16,7.80
2018,12,08,12,17,7.80
2018,12,08,12,18,7.80
2018,12,08,12,19,7.80
2018,12,08,12,20,7.80
2018,12,08,12,21,7.80
2018,12,08,12,22,7.70
2018,12,08,12,23,7.70
2018,12,08,12,24,7.70
2018,12,08,12,25,7.70
2018,12,08,12,26,7.70
2018,12,08,12,27,7.70
2018,12,08,12,28,7.70
2018,12,08,12,29,7.70
2018,12,08,12,30,7.70
2018,12,08,12,31,7.70
2018,12,08,12,32,7.70
2018,12,08,12,33,7.80
2018,12,08,12,34,7.80
2018,12,08,12,35,7.80
2018,12,08,12,36,7.80
2018,12,08,12,37,7.80
2018,12,08,12,38,7.90
2018,12,08,12,39,7.90
2018,12,08,12,40,7.90
2018,12,08,12,41,7.90
2018,12,08,12,42,7.90
2018,12,08,12,43,7.90
2018,12,08,12,44,8.00
2018,12,08,12,45,8.00
2018,12,08,12,46,8.00
2018,12,08,12,47,8.00
2018,12,08,12,48,8.00
2018,12,08,12,49,8.00
2018,12,08,12,50,8.00
2018,12,08,12,51,8.00
2018,12,08,12,52,8.00
2018,12,08,12,53,8.00
2018,12,08,12,54,7.90
2018,12,08,12,55,7.90
2018,12,08,12,56,7.90
2018,12,08,12,57,8.00
2018,12,08,12,58,8.00
2018,12,08,12,59,8.00
2018,12,08,13,00,8.00
2018,12,08,13,01,8.00
2018,12,08,13,02,8.00
2018,12,08,13,03,8.00
2018,12,08,13,04,8.10
2018,12,08,13,05,8.10
2018,12,08,13,06,8.10
2018,12,08,13,07,8.10
2018,12,08,13,08,8.10
2018,12,08,13,09,8.10
2018,12,08,13,10,8.10
2018,12,08,13,11,8.10
2018,12,08,13,12,8.10
2018,12,08,13,13,8.10
2018,12,08,13,14,8.10
2018,12,08,13,15,8.10
2018,12,08,13,16,8.10
2018,12,08,13,17,8.10
2018,12,08,13,18,8.20
2018,12,08,13,19,8.20
2018,12,08,13,20,8.20
2018,12,08,13,21,8.20
2018,12,08,13,22,8.20
2018,12,08,13,23,8.20
2018,12,08,13,24,8.20
2018,12,08,13,25,8.20
2018,12,08,13,26,8.20
2018,12,08,13,27,8.20
2018,12,08,13,28,8.20
2018,12,08,13,29,8.20
2018,12,08,13,30,8.20
2018,12,08,13,31,8.20
2018,12,08,13,32,8.20
2018,12,08,13,33,8.20
2018,12,08,13,34,8.20
2018,12,08,13,35,8.20
2018,12,08,13,36,8.20
2018,12,08,13,37,8.20
2018,12,08,13,38,8.20
2018,12,08,13,39,8.20
2018,12,08,13,40,8.20
2018,12,08,13,41,8.20
2018,12,08,13,42,8.20
2018,12,08,13,43,8.20
2018,12,08,13,44,8.20
2018,12,08,13,45,8.20
2018,12,08,13,46,8.20
2018,12,08,13,47,8.20
2018,12,08,13,48,8.20
2018,12,08,13,49,8.20
2018,12,08,13,50,8.20
2018,12,08,13,51,8.20
2018,12,08,13,52,8.20
2018,12,08,13,53,8.20
2018,12,08,13,54,8.20
2018,12,08,13,55,8.20
2018,12,08,13,56,8.20
2018,12,08,13,57,8.20
2018,12,08,13,58,8.20
2018,12,08,13,59,8.20
2018,12,08,14,00,8.20
2018,12,08,14,01,8.20
2018,12,08,14,02,8.20
2018,12,08,14,03,8.20
2018,12,08,14,04,8.20
2018,12,08,14,05,8.20
2018,12,08,14,06,8.20
2018,12,08,14,07,8.20
2018,12,08,14,08,8.20
2018,12,08,14,09,8.20
2018,12,08,14,10,8.20
2018,12,08,14,11,8.20
2018,12,08,14,12,8.20
2018,12,08,14,13,8.20
2018,12,08,14,14,8.20
2018,12,08,14,15,8.20
2018,12,08,14,16,8.20
2018,12,08,14,17,8.20
2018,12,08,14,18,8.20
2018,12,08,14,19,8.20
2018,12,08,14,20,8.20
2018,12,08,14,21,8.20
2018,12,08,14,22,8.20
2018,12,08,14,23,8.20
2018,12,08,14,24,8.20
2018,12,08,14,25,8.10
2018,12,08,14,26,8.10
2018,12,08,14,27,8.10
2018,12,08,14,28,8.10
2018,12,08,14,29,8.10
2018,12,08,14,30,8.10
2018,12,08,14,31,8.10
2018,12,08,14,32,8.10
2018,12,08,14,33,8.10
2018,12,08,14,34,8.10
2018,12,08,14,35,8.10
2018,12,08,14,36,8.10
2018,12,08,14,37,8.10
2018,12,08,14,38,8.10
2018,12,08,14,39,8.10
2018,12,08,14,40,8.10
2018,12,08,14,41,8.10
2018,12,08,14,42,8.10
2018,12,08,14,43,8.10
2018,12,08,14,44,8.10
2018,12,08,14,45,8.10
2018,12,08,14,46,8.10
2018,12,08,14,47,8.10
2018,12,08,14,48,8.10
2018,12,08,14,49,8.10
2018,12,08,14,50,8.10
2018,12,08,14,51,8.10
2018,12,08,14,52,8.10
2018,12,08,14,53,8.10
2018,12,08,14,54,8.10
2018,12,08,14,55,8.10
2018,12,08,14,56,8.10
2018,12,08,14,57,8.10
2018,12,08,14,58,8.10
2018,12,08,14,59,8.10
2018,12,08,15,00,8.10
2018,12,08,15,01,8.20
2018,12,08,15,02,8.20
2018,12,08,15,03,8.20
2018,12,08,15,04,8.20
2018,12,08,15,05,8.20
2018,12,08,15,06,8.20
2018,12,08,15,07,8.20
2018,12,08,15,08,8.20
2018,12,08,15,09,8.20
2018,12,08,15,10,8.20
2018,12,08,15,11,8.20
2018,12,08,15,12,8.20
2018,12,08,15,13,8.20
2018,12,08,15,14,8.20
2018,12,08,15,15,8.20
2018,12,08,15,16,8.20
2018,12,08,15,17,8.20
2018,12,08,15,18,8.20
2018,12,08,15,19,8.20
2018,12,08,15,20,8.20
2018,12,08,15,21,8.20
2018,12,08,15,22,8.20
2018,12,08,15,23,8.20
2018,12,08,15,24,8.20
2018,12,08,15,25,8.20
2018,12,08,15,26,8.20
2018,12,08,15,27,8.20
2018,12,08,15,28,8.20
2018,12,08,15,29,8.20
2018,12,08,15,30,8.20
2018,12,08,15,31,8.20
2018,12,08,15,32,8.20
2018,12,08,15,33,8.20
2018,12,08,15,34,8.30
2018,12,08,15,35,8.20
2018,12,08,15,36,8.30
2018,12,08,15,37,8.30
2018,12,08,15,38,8.20
2018,12,08,15,39,8.20
2018,12,08,15,40,8.30
2018,12,08,15,41,8.20
2018,12,08,15,42,8.30
2018,12,08,15,43,8.30
2018,12,08,15,44,8.20
2018,12,08,15,45,8.20
2018,12,08,15,46,8.20
2018,12,08,15,47,8.20
2018,12,08,15,48,8.20
2018,12,08,15,49,8.20
2018,12,08,15,50,8.20
2018,12,08,15,51,8.20
2018,12,08,15,52,8.20
2018,12,08,15,53,8.20
2018,12,08,15,54,8.20
2018,12,08,15,55,8.20
2018,12,08,15,56,8.20
2018,12,08,15,57,8.20
2018,12,08,15,58,8.20
2018,12,08,15,59,8.20
2018,12,08,16,00,8.20
2018,12,08,16,01,8.20
2018,12,08,16,02,8.20
2018,12,08,16,03,8.20
2018,12,08,16,04,8.20
2018,12,08,16,05,8.20
2018,12,08,16,06,8.20
2018,12,08,16,07,8.20
2018,12,08,16,08,8.20
2018,12,08,16,09,8.20
2018,12,08,16,10,8.20
2018,12,08,16,11,8.20
2018,12,08,16,12,8.20
2018,12,08,16,13,8.20
2018,12,08,16,14,8.20
2018,12,08,16,15,8.30
2018,12,08,16,16,8.20
2018,12,08,16,17,8.30
2018,12,08,16,18,8.20
2018,12,08,16,19,8.20
2018,12,08,16,20,8.20
2018,12,08,16,21,8.20
2018,12,08,16,22,8.20
2018,12,08,16,23,8.20
2018,12,08,16,24,8.20
2018,12,08,16,25,8.20
2018,12,08,16,26,8.20
2018,12,08,16,27,8.20
2018,12,08,16,28,8.20
2018,12,08,16,29,8.20
2018,12,08,16,30,8.20
2018,12,08,16,31,8.20
2018,12,08,16,32,8.10
2018,12,08,16,33,8.10
2018,12,08,16,34,8.10
2018,12,08,16,35,8.00
2018,12,08,16,36,8.00
2018,12,08,16,37,8.00
2018,12,08,16,38,7.90
2018,12,08,16,39,7.90
2018,12,08,16,40,7.90
2018,12,08,16,41,7.90
2018,12,08,16,42,7.90
2018,12,08,16,43,7.80
2018,12,08,16,44,7.80
2018,12,08,16,45,7.80
2018,12,08,16,46,7.80
2018,12,08,16,47,7.80
2018,12,08,16,48,7.70
2018,12,08,16,49,7.70
2018,12,08,16,50,7.70
2018,12,08,16,51,7.70
2018,12,08,16,52,7.70
2018,12,08,16,53,7.70
2018,12,08,16,54,7.70
2018,12,08,16,55,7.70
2018,12,08,16,56,7.70
2018,12,08,16,57,7.70
2018,12,08,16,58,7.70
2018,12,08,16,59,7.60
2018,12,08,17,00,7.60
2018,12,08,17,01,7.60
2018,12,08,17,02,7.60
2018,12,08,17,03,7.60
2018,12,08,17,04,7.60
2018,12,08,17,05,7.60
2018,12,08,17,06,7.60
2018,12,08,17,07,7.60
2018,12,08,17,08,7.60
2018,12,08,17,09,7.60
2018,12,08,17,10,7.60
2018,12,08,17,11,7.60
2018,12,08,17,12,7.60
2018,12,08,17,13,7.60
2018,12,08,17,14,7.60
2018,12,08,17,15,7.60
2018,12,08,17,16,7.70
2018,12,08,17,17,7.70
2018,12,08,17,18,7.70
2018,12,08,17,19,7.70
2018,12,08,17,20,7.70
2018,12,08,17,21,7.70
2018,12,08,17,22,7.70
2018,12,08,17,23,7.70
2018,12,08,17,24,7.70
2018,12,08,17,25,7.70
2018,12,08,17,26,7.70
2018,12,08,17,27,7.70
2018,12,08,17,28,7.70
2018,12,08,17,29,7.70
2018,12,08,17,30,7.60
2018,12,08,17,31,7.60
2018,12,08,17,32,7.60
2018,12,08,17,33,7.60
2018,12,08,17,34,7.60
2018,12,08,17,35,7.60
2018,12,08,17,36,7.60
2018,12,08,17,37,7.60
2018,12,08,17,38,7.60
2018,12,08,17,39,7.60
2018,12,08,17,40,7.60
2018,12,08,17,41,7.60
2018,12,08,17,42,7.60
2018,12,08,17,43,7.60
2018,12,08,17,44,7.60
2018,12,08,17,45,7.60
2018,12,08,17,46,7.60
2018,12,08,17,47,7.50
2018,12,08,17,48,7.50
2018,12,08,17,49,7.50
2018,12,08,17,50,7.40
2018,12,08,17,51,7.40
2018,12,08,17,52,7.40
2018,12,08,17,53,7.40
2018,12,08,17,54,7.40
2018,12,08,17,55,7.40
2018,12,08,17,56,7.40
2018,12,08,17,57,7.40
2018,12,08,17,58,7.40
2018,12,08,17,59,7.40
2018,12,08,18,00,7.40
2018,12,08,18,01,7.40
2018,12,08,18,02,7.40
2018,12,08,18,03,7.40
2018,12,08,18,04,7.30
2018,12,08,18,05,7.30
2018,12,08,18,06,7.30
2018,12,08,18,07,7.30
2018,12,08,18,08,7.30
2018,12,08,18,09,7.30
2018,12,08,18,10,7.30
2018,12,08,18,11,7.30
2018,12,08,18,12,7.30
2018,12,08,18,13,7.30
2018,12,08,18,14,7.30
2018,12,08,18,15,7.30
2018,12,08,18,16,7.30
2018,12,08,18,17,7.30
2018,12,08,18,18,7.30
2018,12,08,18,19,7.30
2018,12,08,18,20,7.30
2018,12,08,18,21,7.30
2018,12,08,18,22,7.30
2018,12,08,18,23,7.30
2018,12,08,18,24,7.30
2018,12,08,18,25,7.30
2018,12,08,18,26,7.30
2018,12,08,18,27,7.30
2018,12,08,18,28,7.30
2018,12,08,18,29,7.30
2018,12,08,18,30,7.30
2018,12,08,18,31,7.30
2018,12,08,18,32,7.30
2018,12,08,18,33,7.20
2018,12,08,18,34,7.30
2018,12,08,18,35,7.30
2018,12,08,18,36,7.20
2018,12,08,18,37,7.20
2018,12,08,18,38,7.30
2018,12,08,18,39,7.20
2018,12,08,18,40,7.20
2018,12,08,18,41,7.20
2018,12,08,18,42,7.30
2018,12,08,18,43,7.20
2018,12,08,18,44,7.20
2018,12,08,18,45,7.20
2018,12,08,18,46,7.20
2018,12,08,18,47,7.20
2018,12,08,18,48,7.20
2018,12,08,18,49,7.20
2018,12,08,18,50,7.20
2018,12,08,18,51,7.20
2018,12,08,18,52,7.20
2018,12,08,18,53,7.20
2018,12,08,18,54,7.20
2018,12,08,18,55,7.20
2018,12,08,18,56,7.20
2018,12,08,18,57,7.20
2018,12,08,18,58,7.20
2018,12,08,18,59,7.20
2018,12,08,19,00,7.20
2018,12,08,19,01,7.20
2018,12,08,19,02,7.20
2018,12,08,19,03,7.20
2018,12,08,19,04,7.20
2018,12,08,19,05,7.20
2018,12,08,19,06,7.20
2018,12,08,19,07,7.10
2018,12,08,19,08,7.10
2018,12,08,19,09,7.10
2018,12,08,19,10,7.10
2018,12,08,19,11,7.10
2018,12,08,19,12,7.10
2018,12,08,19,13,7.10
2018,12,08,19,14,7.10
2018,12,08,19,15,7.10
2018,12,08,19,16,7.10
2018,12,08,19,17,7.10
2018,12,08,19,18,7.10
2018,12,08,19,19,7.10
2018,12,08,19,20,7.10
2018,12,08,19,21,7.10
2018,12,08,19,22,7.10
2018,12,08,19,23,7.10
2018,12,08,19,24,7.10
2018,12,08,19,25,7.10
2018,12,08,19,26,7.10
2018,12,08,19,27,7.10
2018,12,08,19,28,7.10
2018,12,08,19,29,7.10
2018,12,08,19,30,7.10
2018,12,08,19,31,7.10
2018,12,08,19,32,7.10
2018,12,08,19,33,7.10
2018,12,08,19,34,7.10
2018,12,08,19,35,7.10
2018,12,08,19,36,7.10
2018,12,08,19,37,7.10
2018,12,08,19,38,7.10
2018,12,08,19,39,7.10
2018,12,08,19,40,7.10
2018,12,08,19,41,7.10
2018,12,08,19,42,7.10
2018,12,08,19,43,7.10
2018,12,08,19,44,7.10
2018,12,08,19,45,7.10
2018,12,08,19,46,7.10
2018,12,08,19,47,7.10
2018,12,08,19,48,7.10
2018,12,08,19,49,7.10
2018,12,08,19,50,7.10
2018,12,08,19,51,7.00
2018,12,08,19,52,7.00
2018,12,08,19,53,7.00
2018,12,08,19,54,7.00
2018,12,08,19,55,7.00
2018,12,08,19,56,7.00
2018,12,08,19,57,7.00
2018,12,08,19,58,7.00
2018,12,08,19,59,7.00
2018,12,08,20,00,7.00
2018,12,08,20,01,7.00
2018,12,08,20,02,7.00
2018,12,08,20,03,7.00
2018,12,08,20,04,7.00
2018,12,08,20,05,7.00
2018,12,08,20,06,7.00
2018,12,08,20,07,7.00
2018,12,08,20,08,7.10
2018,12,08,20,09,7.10
2018,12,08,20,10,7.10
2018,12,08,20,11,7.10
2018,12,08,20,12,7.10
2018,12,08,20,13,7.10
2018,12,08,20,14,7.10
2018,12,08,20,15,7.10
2018,12,08,20,16,7.10
2018,12,08,20,17,7.10
2018,12,08,20,18,7.10
2018,12,08,20,19,7.10
2018,12,08,20,20,7.10
2018,12,08,20,21,7.10
2018,12,08,20,22,7.10
2018,12,08,20,23,7.10
2018,12,08,20,24,7.10
2018,12,08,20,25,7.10
2018,12,08,20,26,7.10
2018,12,08,20,27,7.10
2018,12,08,20,28,7.10
2018,12,08,20,29,7.10
2018,12,08,20,30,7.10
2018,12,08,20,31,7.10
2018,12,08,20,32,7.10
2018,12,08,20,33,7.10
2018,12,08,20,34,7.10
2018,12,08,20,35,7.10
2018,12,08,20,36,7.10
2018,12,08,20,37,7.10
2018,12,08,20,38,7.10
2018,12,08,20,39,7.10
2018,12,08,20,40,7.10
2018,12,08,20,41,7.10
2018,12,08,20,42,7.10
2018,12,08,20,43,7.10
2018,12,08,20,44,7.10
2018,12,08,20,45,7.10
2018,12,08,20,46,7.10
2018,12,08,20,47,7.10
2018,12,08,20,48,7.10
2018,12,08,20,49,7.10
2018,12,08,20,50,7.10
2018,12,08,20,51,7.10
2018,12,08,20,52,7.10
2018,12,08,20,53,7.10
2018,12,08,20,54,7.10
2018,12,08,20,55,7.10
2018,12,08,20,56,7.10
2018,12,08,20,57,7.10
2018,12,08,20,58,7.10
2018,12,08,20,59,7.10
2018,12,08,21,00,7.10
2018,12,08,21,01,7.10
2018,12,08,21,02,7.10
2018,12,08,21,03,7.10
2018,12,08,21,04,7.10
2018,12,08,21,05,7.10
2018,12,08,21,06,7.10
2018,12,08,21,07,7.10
2018,12,08,21,08,7.10
2018,12,08,21,09,7.20
2018,12,08,21,10,7.10
2018,12,08,21,11,7.10
2018,12,08,21,12,7.20
2018,12,08,21,13,7.20
2018,12,08,21,14,7.20
2018,12,08,21,15,7.20
2018,12,08,21,16,7.20
2018,12,08,21,17,7.20
2018,12,08,21,18,7.20
2018,12,08,21,19,7.20
2018,12,08,21,20,7.20
2018,12,08,21,21,7.20
2018,12,08,21,22,7.20
2018,12,08,21,23,7.20
2018,12,08,21,24,7.20
2018,12,08,21,25,7.20
2018,12,08,21,26,7.20
2018,12,08,21,27,7.20
2018,12,08,21,28,7.20
2018,12,08,21,29,7.20
2018,12,08,21,30,7.20
2018,12,08,21,31,7.20
2018,12,08,21,32,7.20
2018,12,08,21,33,7.20
2018,12,08,21,34,7.20
2018,12,08,21,35,7.20
2018,12,08,21,36,7.20
2018,12,08,21,37,7.20
2018,12,08,21,38,7.30
2018,12,08,21,39,7.30
2018,12,08,21,40,7.30
2018,12,08,21,41,7.30
2018,12,08,21,42,7.40
2018,12,08,21,43,7.40
2018,12,08,21,44,7.40
2018,12,08,21,45,7.40
2018,12,08,21,46,7.40
2018,12,08,21,47,7.50
2018,12,08,21,48,7.50
2018,12,08,21,49,7.50
2018,12,08,21,50,7.60
2018,12,08,21,51,7.60
2018,12,08,21,52,7.60
2018,12,08,21,53,7.60
2018,12,08,21,54,7.60
2018,12,08,21,55,7.70
2018,12,08,21,56,7.70
2018,12,08,21,57,7.70
2018,12,08,21,58,7.70
2018,12,08,21,59,7.70
2018,12,08,22,00,7.70
2018,12,08,22,01,7.70
2018,12,08,22,02,7.70
2018,12,08,22,03,7.70
2018,12,08,22,04,7.70
2018,12,08,22,05,7.80
2018,12,08,22,06,7.80
2018,12,08,22,07,7.80
2018,12,08,22,08,7.80
2018,12,08,22,09,7.80
2018,12,08,22,10,7.80
2018,12,08,22,11,7.80
2018,12,08,22,12,7.80
2018,12,08,22,13,7.80
2018,12,08,22,14,7.80
2018,12,08,22,15,7.80
2018,12,08,22,16,7.80
2018,12,08,22,17,7.80
2018,12,08,22,18,7.80
2018,12,08,22,19,7.80
2018,12,08,22,20,7.80
2018,12,08,22,21,7.80
2018,12,08,22,22,7.80
2018,12,08,22,23,7.80
2018,12,08,22,24,7.80
2018,12,08,22,25,7.70
2018,12,08,22,26,7.70
2018,12,08,22,27,7.70
2018,12,08,22,28,7.70
2018,12,08,22,29,7.60
2018,12,08,22,30,7.60
2018,12,08,22,31,7.60
2018,12,08,22,32,7.50
2018,12,08,22,33,7.50
2018,12,08,22,34,7.50
2018,12,08,22,35,7.50
2018,12,08,22,36,7.50
2018,12,08,22,37,7.50
2018,12,08,22,38,7.50
2018,12,08,22,39,7.40
2018,12,08,22,40,7.40
2018,12,08,22,41,7.40
2018,12,08,22,42,7.40
2018,12,08,22,43,7.40
2018,12,08,22,44,7.40
2018,12,08,22,45,7.50
2018,12,08,22,46,7.50
2018,12,08,22,47,7.40
2018,12,08,22,48,7.50
2018,12,08,22,49,7.40
2018,12,08,22,50,7.40
2018,12,08,22,51,7.50
2018,12,08,22,52,7.40
2018,12,08,22,53,7.40
2018,12,08,22,54,7.40
2018,12,08,22,55,7.40
2018,12,08,22,56,7.40
2018,12,08,22,57,7.40
2018,12,08,22,58,7.40
2018,12,08,22,59,7.40
2018,12,08,23,00,7.30
2018,12,08,23,01,7.30
2018,12,08,23,02,7.30
2018,12,08,23,03,7.30
2018,12,08,23,04,7.30
2018,12,08,23,05,7.30
2018,12,08,23,06,7.40
2018,12,08,23,07,7.40
2018,12,08,23,08,7.40
2018,12,08,23,09,7.40
2018,12,08,23,10,7.40
2018,12,08,23,11,7.40
2018,12,08,23,12,7.40
2018,12,08,23,13,7.40
2018,12,08,23,14,7.40
2018,12,08,23,15,7.40
2018,12,08,23,16,7.40
2018,12,08,23,17,7.40
2018,12,08,23,18,7.40
2018,12,08,23,19,7.40
2018,12,08,23,20,7.40
2018,12,08,23,21,7.40
2018,12,08,23,22,7.40
2018,12,08,23,23,7.40
2018,12,08,23,24,7.50
2018,12,08,23,25,7.50
2018,12,08,23,26,7.50
2018,12,08,23,27,7.50
2018,12,08,23,28,7.60
2018,12,08,23,29,7.60
2018,12,08,23,30,7.60
2018,12,08,23,31,7.60
2018,12,08,23,32,7.60
2018,12,08,23,33,7.70
2018,12,08,23,34,7.70
2018,12,08,23,35,7.70
2018,12,08,23,36,7.70
2018,12,08,23,37,7.70
2018,12,08,23,38,7.70
2018,12,08,23,39,7.80
2018,12,08,23,40,7.80
2018,12,08,23,41,7.80
2018,12,08,23,42,7.80
2018,12,08,23,43,7.80
2018,12,08,23,44,7.80
2018,12,08,23,45,7.80
2018,12,08,23,46,7.80
2018,12,08,23,47,7.80
2018,12,08,23,48,7.80
2018,12,08,23,49,7.80
2018,12,08,23,50,7.80
2018,12,08,23,51,7.80
2018,12,08,23,52,7.80
2018,12,08,23,53,7.80
2018,12,08,23,54,7.80
2018,12,08,23,55,7.80
2018,12,08,23,56,7.80
2018,12,08,23,57,7.80
2018,12,08,23,58,7.80
2018,12,08,23,59,7.80
